Погода в Рогатине

Украина / Ивано-Франковская область     49°24′44″N   24°36′54″E
темп.,
°C
ветер,
м/с
пор.,
м/с
влажн.,
%
обл.,
%
осадки,
мм/ч
давл.,
гПа
погр.,
м
18 января, пн
пн1823:00−12сз4891100 0.1 1021530
02:00−13сз5992100 0.1 1022564
05:00−14сз4894100 0.1 1022508
08:00−15сз3895100 0.1 1023401
11:00−14сз478997 0.0 1023465
14:00−12сз468798 0.1 1023516
17:00−13зсз359399 0.0 1023121
20:00−14сз239385 0.0 102454
19 января, вт
вт1923:00−15з119241 0.0 102420
02:00−15зюз119335 0.0 102420
05:00−14ююз119154 0.0 102320
08:00−13ю228968 0.0 102323
11:00−9ююз358996 0.0 1022208
14:00−5ююз369396 0.3 1020405
17:00−5ююз3593100 0.5 1019108
20:00−5ююз4983100 0.5 1019281
20 января, ср
ср2023:00−5ююз3785100 0.0 1018185
02:00−5ю3384100 0.0 101767
05:00−5ююв3584100 0.0 101594
08:00−4ю4890100 0.1 1015241
11:00−3ю4995100 0.9 1015321
14:00−1ю41093100 1.4 1015337
17:00−1ююз348674 0.0 101568
20:00−1юз4138576 0.0 1016327
21 января, чт
чт2123:00−2ююз34860 0.0 101581
02:00−1ююз34842 0.0 101552
05:00−1ююз348470 0.0 101452
08:000ю348485 0.0 101447
11:00+2ю469295 0.0 1014105
14:00+2ююв479968 0.0 1013145
17:00+2ююв488635 0.0 1013117
20:00+1ю5118348 0.0 1012159
22 января, пт
пт2223:00+1ю5118381 0.0 1011166
02:00+2ю5108591 0.0 1010174
05:00+1ююв4881100 0.0 1009144
08:00+2ю4883100 0.0 1008147
11:00+3ю5109386 0.0 1007201
14:00+5ююв5119359 0.0 1006232
17:00+3ююв488898 0.0 1004126
20:00+4ю5118899 0.0 1004174